Location: B?ezina
(49.8085°N, 13.6013°E)
Time: 20:53:11
(UTC+00:00)

Cosmos 44 - Pass Details

Date: 19 May 2025
Orbit: 588 x 763 km, 65.1° (Epoch: 15 June)

Event Time Altitude Azimuth Distance (km) Brightness Sun altitude
Rises 19:35:31 0° 322° (NW) 2,887 8.7 -6.6°
Reaches altitude 10° 19:37:48 10° 327° (NNW) 1,999 7.2 -6.9°
Maximum altitude 19:42:14 55° 46° (NE) 773 3.6 -7.4°
Drops below altitude 10° 19:46:53 10° 124° (SE) 2,091 5.1 -8.0°
Enters shadow 19:46:58 10° 124° (SE) 2,119 5.1 -8.0°
